Home > Weather > Reno > Past weeks

Flag for USA Weather for the Past 2 Weeks in Reno, Nevada, USA

Now
51 °F

Passing clouds.


Feels Like: 50 °F
Forecast: 44 / 71 °F
Wind: 5 mph from Southwest

Location: Reno Tahoe International Airport

Current Time: May 2, 2016 at 2:23:29 AM

Latest Report: May 2, 2016 at 12:55 AM


Visibility: 10 mi

Pressure: 29.98 "Hg (25.41 "Hg at 1372m altitude)

Humidity: 59%

Dew Point: 37 °F

Location of RenoLocation

Historic Weather in Reno — Graph

°F

Reno Temperature Yesterday

Maximum temperature yesterday: 67 °F (at 3:55 PM)
Minimum temperature yesterday: 38 °F (at 4:55 AM)
Average temperature yesterday: 54 °F

High & Low Weather Summary for the Past Weeks

 TemperatureHumidityPressure
High79 °F (Apr 19, 4:55 PM)96% (Apr 22, 2:55 PM)30.25 "Hg (Apr 22, 2:55 PM)
Low34 °F (Apr 26, 5:55 AM)10% (Apr 17, 1:55 PM)29.57 "Hg (Apr 22, 9:55 AM)
Average54 °F44%29.92 "Hg
* Reported Apr 17 12:55 AM — May 2 12:55 AM, Reno, Weather by CustomWeather, © 2016

Note: Actual official high and low records may vary slightly from our data, if they occured in-between our weather recording intervals... More about our weather records

Advertising

Reno Weather History for the Previous 24 Hours

Scroll right to see more
 ConditionsComfort  
Time TempWeatherWind HumidityBarometerVisibility
12:55 AM
Mon, May 2
51 °FPassing clouds.5 mph59%29.98 "Hg10 mi
11:55 PM
Sun, May 1
52 °FPassing clouds.12 mph57%29.97 "Hg10 mi
10:55 PM55 °FPartly cloudy.7 mph49%29.96 "Hg10 mi
9:55 PM57 °FPartly cloudy.7 mph41%29.98 "Hg10 mi
8:55 PM59 °FPartly cloudy.5 mph38%29.94 "Hg10 mi
7:55 PM61 °FBroken clouds.7 mph30%29.91 "Hg10 mi
6:55 PM63 °FBroken clouds.8 mph28%29.90 "Hg10 mi
5:55 PM65 °FBroken clouds.6 mph25%29.90 "Hg10 mi
4:55 PM67 °FBroken clouds.12 mph23%29.89 "Hg10 mi
3:55 PM67 °FBroken clouds.8 mph20%29.90 "Hg10 mi
2:55 PM64 °FPartly sunny.7 mph27%29.92 "Hg10 mi
1:55 PM63 °FBroken clouds.13 mph30%29.95 "Hg10 mi
12:55 PM62 °FPartly sunny.9 mph31%29.95 "Hg10 mi
11:55 AM61 °FScattered clouds.12 mph35%29.95 "Hg10 mi
10:55 AM61 °FScattered clouds.12 mph36%29.96 "Hg10 mi
9:55 AM55 °FScattered clouds.3 mph44%29.98 "Hg10 mi
8:55 AM52 °FPassing clouds.No wind49%29.98 "Hg10 mi
7:55 AM46 °FPassing clouds.3 mph61%29.99 "Hg10 mi
6:55 AM41 °FPassing clouds.No wind70%29.98 "Hg10 mi
5:55 AM39 °FPassing clouds.No wind76%29.98 "Hg10 mi
4:55 AM38 °FPassing clouds.No wind79%29.98 "Hg10 mi
3:55 AM41 °FPassing clouds.No wind70%29.98 "Hg10 mi
2:55 AM42 °FPassing clouds.No wind68%29.98 "Hg10 mi
Weather by CustomWeather, © 2016

See weather overviewHow to use our weather pages